SCP
0 0 0 0 0 0 0 0 0 0 0 0 0 0 0 0 0 0 0 0 0 0 0 0 0 0 0 0 0 0 0 0 0 0 0 0 0 0 0 0 0 0 0
0 0 0 0 0 0 0 0 0 0 0 0 0 0 0 0 0 0 0 0 0 0 0 0 0 0 0 0 0 0 0 0 0 0 0 0 0 0 0 0 0 0 0
0 0 0 0 0 0 0 0 0 0 0 0 0 0 0 0 0 0 0 0 0 0 0 0 0 0 0 0 0 0 0 0 0 0 0 0 0 0 0 0 0 0 0
0 0 0 0 0 0 0 0 0 0 0 0 0 0 0 0 0 0 0 0 0 0 0 0 0 0 0 0 0 0 0 0 0 0 0 0 0 0 0 0 0 0 0
0 0 0 0 0 0 0 0 0 0 0 0 0 0 0 0 0 0 0 0 0 0 0 0 0 0 0 0 0 0 0 0 0 0 0 0 0 0 0 0 0 0 0
0 0 0 0 0 0 0 0 0 0 0 0 0 0 0 0 0 0 0 0 0 0 0 0 0 0 0 0 0 0 0 0 0 0 0 0 0 0 0 0 0 0 0
0 0 0 0 0 0 0 0 0 0 0 0 0 0 0 0 0 0 0 0 0 0 0 0 0 0 0 0 0 0 0 0 0 0 0 0 0 0 0 0 0 0 0
0 0 0 0 0 0 0 0 0 0 0 0 0 0 0 0 0 0 0 0 0 0 0 0 0 0 0 0 0 0 0 0 0 0 0 0 0 0 0 0 0 0 0
0 0 0 0 0 0 -0 -0 -0 -0 -0 -0 -0 0 0 0 0 0 0 0 0 0 0 0 0 0 0 0 0 0 0 0 0 0 0 0 0 0 0 0 0 0 0
0 0 0 0 0 0 -0 -0 -0 -0 -0 0 0 0 0 0 0 0 0 0 0 0 0 0 0 0 0 0 0 0 0 0 0 0 0 0 0 0 0 0 0 0 0
0 0 0 0 0 0 0 0 0 0 0 0 0 0 0 0 0 0 0 0 0 0 0 0 0 0 0 0 0 0 0 0 0 0 0 0 0 0 0 0 0 0 0
0 0 0 0 0 0 0 0 0 0 0 0 0 0 0 0 0 0 0 0 0 0 0 0 0 0 0 0 0 0 0 0 0 0 0 0 0 0 0 0 0 0 0
0 0 0 0 0 0 0 0 0 0 0 0 0 0 0 0 0 0 0 0 0 0 0 0 0 0 0 0 0 0 0 0 0 0 0 0 0 0 0 0 0 0 0
0 0 0 0 0 0 0 0 0 0 0 0 0 0 0 0 0 0 0 0 -0 -0 -0 -0 -0 0 0 0 0 0 0 0 0 0 0 0 0 0 0 0 0 0 0
0 0 0 0 0 0 0 0 0 0 0 0 0 0 0 0 0 0 0 0 0 0 0 -0 -0 -0 -0 -0 -0 -0 0 0 0 0 0 0 0 0 0 0 0 0 0
0 0 0 0 0 0 0 0 0 0 0 0 0 0 0 0 0 0 0 0 0 0 -0 -0 -0 -0 -0 -0 0 0 0 0 0 0 0 0 0 0 0 0 0 0 0
0 0 0 0 0 0 0 0 0 0 0 0 0 0 0 0 0 0 0 0 0 0 0 0 0 0 0 0 0 0 0 0 0 0 0 0 0 0 0 0 0 0 0
0 0 0 0 0 0 0 0 0 0 0 0 0 0 0 0 0 0 0 0 0 0 0 0 0 0 0 0 0 0 0 0 0 0 0 0 0 0 0 0 0 0 0
0 0 0 0 0 0 0 0 0 0 0 0 0 0 0 0 0 0 0 0 0 0 0 0 0 0 0 0 0 0 0 0 0 0 0 0 0 0 0 0 0 0 0
0 0 0 0 0 0 0 0 0 0 0 0 0 0 0 0 0 0 0 0 0 0 0 0 0 0 0 0 0 0 0 0 0 0 0 0 0 0 0 0 0 0 0
0 0 0 0 0 0 0 0 0 0 0 0 0 0 0 0 0 0 0 0 0 0 0 0 0 0 0 0 0 0 0 0 0 0 0 0 0 0 0 0 0 0 0
0 0 0 0 0 0 0 0 0 0 0 0 0 0 0 0 0 0 0 0 0 0 0 0 0 0 0 0 0 0 -0 0 0 0 0 0 0 0 0 0 0 0 0
0 0 0 0 0 0 0 0 0 0 0 0 0 0 0 0 0 0 0 0 0 0 0 0 0 0 0 0 0 0 0 0 0 0 0 0 0 0 0 0 0 0 0
0 0 0 0 0 0 0 0 0 0 0 0 0 0 0 0 0 0 0 0 0 0 0 0 0 0 0 0 0 0 0 0 0 0 0 0 0 0 0 0 0 0 0
0 0 0 0 0 0 0 0 0 0 0 0 0 0 0 0 0 0 0 0 0 0 0 0 0 0 0 0 0 0 0 0 0 0 0 0 0 0 0 0 0 0 0
0 0 0 0 0 0 0 0 0 0 0 0 0 0 0 0 0 0 0 0 0 0 0 0 0 0 0 0 0 0 -0 -0 -0 0 0 0 0 0 0 0 0 0 0
Wind_Speed_500mb
33 34 36 37 37 35 31 23 10 5 7 13 15 21 26 23 19 26 30 36 41 43 47 52 56 59 64 66 67 68 69 66 62 62 60 61 59 58 56 52 45 42 39
31 37 40 42 47 49 48 40 32 21 13 9 6 2 9 17 19 18 27 30 34 40 43 44 49 55 61 66 67 68 72 71 72 72 67 51 64 66 64 59 55 50 47
34 34 37 42 46 54 55 53 50 44 38 30 17 10 5 12 18 16 21 24 28 35 40 43 45 50 57 63 66 70 73 77 80 82 65 29 39 47 65 70 64 58 54
32 33 35 40 45 47 45 46 47 47 47 43 39 34 27 16 9 8 14 20 27 31 35 39 40 43 51 58 60 63 70 77 83 85 88 82 47 30 30 51 64 66 63
29 31 31 32 33 34 37 37 37 38 38 35 34 33 30 22 14 15 17 16 15 18 20 27 39 41 45 51 55 61 65 73 81 90 93 90 88 62 57 49 51 59 58
24 23 25 25 28 28 30 32 33 34 34 32 30 29 27 24 18 17 15 14 15 17 19 21 23 24 38 47 52 57 62 66 75 82 92 97 91 89 76 73 72 66 65
21 19 19 21 23 26 28 27 27 27 27 24 23 25 25 24 26 28 31 27 22 18 20 26 27 27 30 34 47 54 60 63 71 75 85 90 97 94 83 83 80 72 67
15 12 12 14 16 19 20 20 22 26 23 25 26 27 26 26 27 29 30 31 32 33 32 30 27 26 33 36 39 45 52 62 67 74 79 84 87 89 97 95 84 77 69
12 7 6 10 12 10 12 18 25 25 24 26 26 25 25 26 30 30 30 32 34 36 37 38 36 34 32 33 36 42 46 53 61 69 73 79 84 87 90 92 98 93 82
14 7 1 4 7 10 15 19 21 22 23 23 23 24 25 25 26 29 34 36 37 41 44 46 46 43 41 40 39 39 41 49 54 62 67 72 76 80 87 94 94 96 100
16 13 9 7 4 7 9 13 15 19 21 23 23 23 25 28 29 31 35 41 44 48 52 54 54 54 52 50 48 46 47 45 45 51 61 67 69 76 80 85 91 98 99
28 23 15 13 7 7 5 8 13 16 21 24 26 30 35 38 41 42 43 46 49 50 53 58 60 61 62 61 58 57 54 55 54 51 51 61 67 73 75 80 86 92 98
34 26 24 21 16 12 8 5 11 19 27 32 35 37 41 46 52 56 58 61 62 61 60 61 66 69 70 73 72 70 68 65 63 61 61 60 59 68 72 79 82 84 88
38 31 31 27 22 19 16 14 14 20 26 30 33 38 46 53 57 59 60 63 68 73 77 80 82 82 83 83 85 87 88 86 83 76 71 69 65 67 69 73 78 78 81
38 34 33 30 26 24 23 21 23 27 32 34 37 42 50 56 60 63 66 71 77 81 86 90 94 96 97 98 97 97 97 99 102 102 96 86 76 73 71 71 74 74 80
33 33 34 30 28 27 26 27 29 29 35 38 43 49 59 63 65 70 77 86 93 98 101 103 105 108 108 105 104 104 101 101 104 110 111 110 102 90 81 77 75 70 83
15 19 29 31 32 33 34 32 33 38 40 43 48 57 62 66 71 80 88 96 102 106 108 111 112 115 117 116 113 103 93 104 111 113 112 112 114 110 102 89 82 79 78
17 23 28 28 35 37 36 40 42 44 47 53 59 62 66 74 82 88 94 98 102 107 111 114 115 117 123 118 94 83 82 96 113 114 113 104 109 113 106 103 95 92 90
25 27 30 31 31 36 39 42 43 44 52 59 63 69 77 83 88 93 96 98 101 106 111 113 115 115 124 111 91 80 86 100 114 118 122 118 120 112 88 90 99 101 102
41 36 29 30 33 37 39 43 46 54 59 62 69 77 83 88 92 94 97 99 102 107 107 109 102 99 101 90 77 67 72 86 94 104 108 106 100 97 88 90 98 99 111
38 35 36 41 46 43 44 50 54 57 61 69 78 83 83 86 88 92 94 98 102 102 99 96 90 86 83 80 64 57 62 73 85 91 93 89 83 84 88 88 97 109 105
39 42 42 42 43 44 49 52 54 57 66 76 81 82 82 83 85 89 94 94 91 89 88 88 89 85 80 75 63 61 63 68 82 95 95 89 78 82 86 88 94 96 97
44 45 43 48 47 49 52 53 53 63 73 76 80 80 82 83 82 84 88 84 76 78 82 83 85 89 90 88 76 74 74 71 74 83 84 80 90 90 91 83 94 94 89
47 48 50 51 49 49 49 51 58 67 72 78 79 79 81 82 82 81 77 73 72 76 80 84 92 95 87 81 81 86 95 97 90 90 90 91 77 76 81 82 81 91 93
53 54 53 50 48 47 48 53 60 66 71 75 74 75 79 80 83 80 72 69 67 64 74 82 85 91 92 87 79 83 85 85 86 88 91 85 78 74 76 73 63 93 92
53 52 50 50 48 46 50 53 59 63 67 69 69 70 75 76 79 80 78 66 64 60 63 66 69 79 80 82 79 82 82 82 79 82 82 81 79 72 72 71 57 52 67
Wind_Direction_500mb
62 58 58 58 57 57 63 69 74 93 245 230 229 226 232 231 252 255 255 256 256 257 258 260 260 261 259 257 258 256 251 246 237 236 237 238 240 241 244 245 248 251 256
81 69 66 66 65 65 63 61 63 67 67 41 45 177 227 238 241 257 262 261 265 263 264 262 260 264 265 260 255 253 252 247 240 236 237 241 245 245 244 245 245 246 250
95 83 77 70 68 66 65 64 63 63 60 57 47 10 285 244 224 242 255 261 270 273 274 267 264 262 263 266 264 260 254 249 243 240 234 232 239 249 245 246 245 244 247
97 89 82 76 71 69 67 66 66 63 61 56 54 54 51 40 25 308 273 263 260 258 272 267 265 264 265 265 266 265 262 257 248 245 240 236 253 238 242 245 245 245 244
106 98 86 78 72 68 63 58 58 57 58 56 57 57 56 48 13 333 327 318 301 271 264 264 256 259 258 265 267 266 261 259 257 253 251 247 242 247 250 255 249 243 245
112 99 88 77 67 58 55 50 43 45 41 35 38 39 43 47 41 27 9 344 320 305 293 277 262 264 259 260 262 265 267 265 263 261 258 255 251 245 246 252 256 256 255
121 109 86 67 55 46 41 41 42 46 42 36 37 37 36 32 28 25 22 20 16 352 318 301 294 293 283 265 260 261 261 262 263 263 262 263 259 255 258 258 257 261 256
120 99 71 60 44 33 33 39 46 52 51 47 48 48 43 36 32 27 21 14 12 12 7 0 344 319 301 289 275 264 261 258 259 261 262 263 263 261 258 257 263 260 255
130 109 59 26 25 25 48 50 45 48 51 49 44 40 38 33 29 23 17 11 6 4 358 356 358 356 347 323 296 279 271 264 259 259 260 262 263 263 262 261 260 259 259
148 151 338 343 12 33 28 26 27 26 31 35 36 30 25 21 14 4 360 357 353 351 350 349 348 346 344 338 332 320 298 280 269 263 261 261 263 263 260 261 259 258 257
207 234 234 253 318 357 0 6 15 9 10 13 14 8 4 357 353 348 343 338 337 335 335 332 333 334 333 331 327 323 320 313 299 278 266 265 263 263 263 259 259 259 257
227 218 215 192 206 271 300 347 2 348 352 353 354 352 348 344 340 336 333 330 328 326 323 322 320 318 319 319 318 317 315 313 310 304 295 282 271 264 262 261 259 257 258
208 195 186 195 218 235 258 313 341 337 340 339 336 337 336 333 332 331 329 326 324 323 321 318 315 315 313 310 308 308 307 305 303 303 301 299 291 282 270 264 259 258 260
216 205 205 219 233 245 260 271 297 318 324 326 319 318 322 324 322 321 319 319 318 317 316 314 312 309 307 305 304 303 302 300 297 295 293 292 292 292 286 275 266 262 259
205 215 220 225 237 245 254 270 294 307 313 319 319 314 316 316 315 314 314 312 311 310 307 306 304 302 301 300 300 298 296 295 295 293 291 287 285 284 285 284 278 268 263
215 221 215 222 236 249 258 263 266 282 298 308 311 307 311 312 313 313 312 311 310 309 307 305 303 300 298 296 295 294 293 290 288 287 287 288 286 281 279 279 279 277 258
229 224 232 254 251 243 252 260 275 291 300 300 303 306 308 310 312 311 311 310 309 307 305 303 302 300 298 297 296 294 291 288 286 284 283 281 280 281 279 275 274 273 265
258 261 264 267 241 248 256 267 283 295 298 303 307 309 310 311 311 310 310 309 307 305 303 301 299 298 295 295 295 293 288 283 280 278 277 274 274 273 275 276 273 269 268
278 273 268 260 252 259 271 280 289 295 301 306 309 311 311 312 313 313 312 310 307 304 302 301 300 298 296 298 296 294 284 278 277 277 275 273 271 267 266 266 267 269 267
287 287 277 264 266 272 280 289 296 302 306 309 312 313 316 317 317 316 314 312 310 307 306 304 303 302 301 304 301 297 292 287 285 284 281 276 271 271 266 260 258 259 265
280 270 268 271 272 276 288 293 300 305 308 311 313 316 318 318 317 316 316 315 314 312 310 308 308 307 309 312 305 300 294 289 288 285 285 282 279 273 266 258 256 254 262
275 269 263 263 270 283 291 296 302 307 310 313 315 317 319 319 320 320 321 320 316 312 311 312 312 312 316 317 305 299 293 291 287 285 284 282 281 275 270 263 256 255 255
261 258 269 276 279 288 294 299 304 310 312 314 316 319 320 322 325 326 326 317 317 316 315 313 312 315 317 314 308 302 299 294 289 289 292 289 278 272 277 268 255 250 251
265 266 270 276 281 289 295 300 308 310 313 316 318 320 321 325 329 331 323 321 324 322 318 317 313 313 309 307 306 304 304 302 296 297 294 295 290 274 274 279 260 245 245
265 270 275 280 286 292 296 306 310 312 315 315 318 322 325 329 332 328 330 328 326 316 310 306 305 305 304 305 307 305 302 300 295 292 290 287 284 282 282 282 269 241 242
265 270 276 282 288 291 298 307 310 312 314 315 319 325 327 331 332 328 334 340 332 315 308 306 304 303 302 304 304 303 301 301 299 290 280 280 276 273 281 278 284 272 253
Wind_Speed_850mb
33 34 36 37 37 35 31 23 10 5 7 13 15 21 26 23 19 26 30 36 41 43 47 52 56 59 64 66 67 68 69 66 62 62 60 61 59 58 56 52 45 42 39
31 37 40 42 47 49 48 40 32 21 13 9 6 2 9 17 19 18 27 30 34 40 43 44 49 55 61 66 67 68 72 71 72 72 67 51 64 66 64 59 55 50 47
34 34 37 42 46 54 55 53 50 44 38 30 17 10 5 12 18 16 21 24 28 35 40 43 45 50 57 63 66 70 73 77 80 82 65 29 39 47 65 70 64 58 54
32 33 35 40 45 47 45 46 47 47 47 43 39 34 27 16 9 8 14 20 27 31 35 39 40 43 51 58 60 63 70 77 83 85 88 82 47 30 30 51 64 66 63
29 31 31 32 33 34 37 37 37 38 38 35 34 33 30 22 14 15 17 16 15 18 20 27 39 41 45 51 55 61 65 73 81 90 93 90 88 62 57 49 51 59 58
24 23 25 25 28 28 30 32 33 34 34 32 30 29 27 24 18 17 15 14 15 17 19 21 23 24 38 47 52 57 62 66 75 82 92 97 91 89 76 73 72 66 65
21 19 19 21 23 26 28 27 27 27 27 24 23 25 25 24 26 28 31 27 22 18 20 26 27 27 30 34 47 54 60 63 71 75 85 90 97 94 83 83 80 72 67
15 12 12 14 16 19 20 20 22 26 23 25 26 27 26 26 27 29 30 31 32 33 32 30 27 26 33 36 39 45 52 62 67 74 79 84 87 89 97 95 84 77 69
12 7 6 10 12 10 12 18 25 25 24 26 26 25 25 26 30 30 30 32 34 36 37 38 36 34 32 33 36 42 46 53 61 69 73 79 84 87 90 92 98 93 82
14 7 1 4 7 10 15 19 21 22 23 23 23 24 25 25 26 29 34 36 37 41 44 46 46 43 41 40 39 39 41 49 54 62 67 72 76 80 87 94 94 96 100
16 13 9 7 4 7 9 13 15 19 21 23 23 23 25 28 29 31 35 41 44 48 52 54 54 54 52 50 48 46 47 45 45 51 61 67 69 76 80 85 91 98 99
28 23 15 13 7 7 5 8 13 16 21 24 26 30 35 38 41 42 43 46 49 50 53 58 60 61 62 61 58 57 54 55 54 51 51 61 67 73 75 80 86 92 98
34 26 24 21 16 12 8 5 11 19 27 32 35 37 41 46 52 56 58 61 62 61 60 61 66 69 70 73 72 70 68 65 63 61 61 60 59 68 72 79 82 84 88
38 31 31 27 22 19 16 14 14 20 26 30 33 38 46 53 57 59 60 63 68 73 77 80 82 82 83 83 85 87 88 86 83 76 71 69 65 67 69 73 78 78 81
38 34 33 30 26 24 23 21 23 27 32 34 37 42 50 56 60 63 66 71 77 81 86 90 94 96 97 98 97 97 97 99 102 102 96 86 76 73 71 71 74 74 80
33 33 34 30 28 27 26 27 29 29 35 38 43 49 59 63 65 70 77 86 93 98 101 103 105 108 108 105 104 104 101 101 104 110 111 110 102 90 81 77 75 70 83
15 19 29 31 32 33 34 32 33 38 40 43 48 57 62 66 71 80 88 96 102 106 108 111 112 115 117 116 113 103 93 104 111 113 112 112 114 110 102 89 82 79 78
17 23 28 28 35 37 36 40 42 44 47 53 59 62 66 74 82 88 94 98 102 107 111 114 115 117 123 118 94 83 82 96 113 114 113 104 109 113 106 103 95 92 90
25 27 30 31 31 36 39 42 43 44 52 59 63 69 77 83 88 93 96 98 101 106 111 113 115 115 124 111 91 80 86 100 114 118 122 118 120 112 88 90 99 101 102
41 36 29 30 33 37 39 43 46 54 59 62 69 77 83 88 92 94 97 99 102 107 107 109 102 99 101 90 77 67 72 86 94 104 108 106 100 97 88 90 98 99 111
38 35 36 41 46 43 44 50 54 57 61 69 78 83 83 86 88 92 94 98 102 102 99 96 90 86 83 80 64 57 62 73 85 91 93 89 83 84 88 88 97 109 105
39 42 42 42 43 44 49 52 54 57 66 76 81 82 82 83 85 89 94 94 91 89 88 88 89 85 80 75 63 61 63 68 82 95 95 89 78 82 86 88 94 96 97
44 45 43 48 47 49 52 53 53 63 73 76 80 80 82 83 82 84 88 84 76 78 82 83 85 89 90 88 76 74 74 71 74 83 84 80 90 90 91 83 94 94 89
47 48 50 51 49 49 49 51 58 67 72 78 79 79 81 82 82 81 77 73 72 76 80 84 92 95 87 81 81 86 95 97 90 90 90 91 77 76 81 82 81 91 93
53 54 53 50 48 47 48 53 60 66 71 75 74 75 79 80 83 80 72 69 67 64 74 82 85 91 92 87 79 83 85 85 86 88 91 85 78 74 76 73 63 93 92
53 52 50 50 48 46 50 53 59 63 67 69 69 70 75 76 79 80 78 66 64 60 63 66 69 79 80 82 79 82 82 82 79 82 82 81 79 72 72 71 57 52 67
Wind_Direction_850mb
62 58 58 58 57 57 63 69 74 93 245 230 229 226 232 231 252 255 255 256 256 257 258 260 260 261 259 257 258 256 251 246 237 236 237 238 240 241 244 245 248 251 256
81 69 66 66 65 65 63 61 63 67 67 41 45 177 227 238 241 257 262 261 265 263 264 262 260 264 265 260 255 253 252 247 240 236 237 241 245 245 244 245 245 246 250
95 83 77 70 68 66 65 64 63 63 60 57 47 10 285 244 224 242 255 261 270 273 274 267 264 262 263 266 264 260 254 249 243 240 234 232 239 249 245 246 245 244 247
97 89 82 76 71 69 67 66 66 63 61 56 54 54 51 40 25 308 273 263 260 258 272 267 265 264 265 265 266 265 262 257 248 245 240 236 253 238 242 245 245 245 244
106 98 86 78 72 68 63 58 58 57 58 56 57 57 56 48 13 333 327 318 301 271 264 264 256 259 258 265 267 266 261 259 257 253 251 247 242 247 250 255 249 243 245
112 99 88 77 67 58 55 50 43 45 41 35 38 39 43 47 41 27 9 344 320 305 293 277 262 264 259 260 262 265 267 265 263 261 258 255 251 245 246 252 256 256 255
121 109 86 67 55 46 41 41 42 46 42 36 37 37 36 32 28 25 22 20 16 352 318 301 294 293 283 265 260 261 261 262 263 263 262 263 259 255 258 258 257 261 256
120 99 71 60 44 33 33 39 46 52 51 47 48 48 43 36 32 27 21 14 12 12 7 0 344 319 301 289 275 264 261 258 259 261 262 263 263 261 258 257 263 260 255
130 109 59 26 25 25 48 50 45 48 51 49 44 40 38 33 29 23 17 11 6 4 358 356 358 356 347 323 296 279 271 264 259 259 260 262 263 263 262 261 260 259 259
148 151 338 343 12 33 28 26 27 26 31 35 36 30 25 21 14 4 360 357 353 351 350 349 348 346 344 338 332 320 298 280 269 263 261 261 263 263 260 261 259 258 257
207 234 234 253 318 357 0 6 15 9 10 13 14 8 4 357 353 348 343 338 337 335 335 332 333 334 333 331 327 323 320 313 299 278 266 265 263 263 263 259 259 259 257
227 218 215 192 206 271 300 347 2 348 352 353 354 352 348 344 340 336 333 330 328 326 323 322 320 318 319 319 318 317 315 313 310 304 295 282 271 264 262 261 259 257 258
208 195 186 195 218 235 258 313 341 337 340 339 336 337 336 333 332 331 329 326 324 323 321 318 315 315 313 310 308 308 307 305 303 303 301 299 291 282 270 264 259 258 260
216 205 205 219 233 245 260 271 297 318 324 326 319 318 322 324 322 321 319 319 318 317 316 314 312 309 307 305 304 303 302 300 297 295 293 292 292 292 286 275 266 262 259
205 215 220 225 237 245 254 270 294 307 313 319 319 314 316 316 315 314 314 312 311 310 307 306 304 302 301 300 300 298 296 295 295 293 291 287 285 284 285 284 278 268 263
215 221 215 222 236 249 258 263 266 282 298 308 311 307 311 312 313 313 312 311 310 309 307 305 303 300 298 296 295 294 293 290 288 287 287 288 286 281 279 279 279 277 258
229 224 232 254 251 243 252 260 275 291 300 300 303 306 308 310 312 311 311 310 309 307 305 303 302 300 298 297 296 294 291 288 286 284 283 281 280 281 279 275 274 273 265
258 261 264 267 241 248 256 267 283 295 298 303 307 309 310 311 311 310 310 309 307 305 303 301 299 298 295 295 295 293 288 283 280 278 277 274 274 273 275 276 273 269 268
278 273 268 260 252 259 271 280 289 295 301 306 309 311 311 312 313 313 312 310 307 304 302 301 300 298 296 298 296 294 284 278 277 277 275 273 271 267 266 266 267 269 267
287 287 277 264 266 272 280 289 296 302 306 309 312 313 316 317 317 316 314 312 310 307 306 304 303 302 301 304 301 297 292 287 285 284 281 276 271 271 266 260 258 259 265
280 270 268 271 272 276 288 293 300 305 308 311 313 316 318 318 317 316 316 315 314 312 310 308 308 307 309 312 305 300 294 289 288 285 285 282 279 273 266 258 256 254 262
275 269 263 263 270 283 291 296 302 307 310 313 315 317 319 319 320 320 321 320 316 312 311 312 312 312 316 317 305 299 293 291 287 285 284 282 281 275 270 263 256 255 255
261 258 269 276 279 288 294 299 304 310 312 314 316 319 320 322 325 326 326 317 317 316 315 313 312 315 317 314 308 302 299 294 289 289 292 289 278 272 277 268 255 250 251
265 266 270 276 281 289 295 300 308 310 313 316 318 320 321 325 329 331 323 321 324 322 318 317 313 313 309 307 306 304 304 302 296 297 294 295 290 274 274 279 260 245 245
265 270 275 280 286 292 296 306 310 312 315 315 318 322 325 329 332 328 330 328 326 316 310 306 305 305 304 305 307 305 302 300 295 292 290 287 284 282 282 282 269 241 242
265 270 276 282 288 291 298 307 310 312 314 315 319 325 327 331 332 328 334 340 332 315 308 306 304 303 302 304 304 303 301 301 299 290 280 280 276 273 281 278 284 272 253